Location: Curry Village
(37.7369°N, 119.5727°W)
Time: 18:17:52
(UTC+00:00)

Cosmos 1943 Rocket - Pass Details

Date: 05 August 2024
Orbit: 813 x 841 km, 71.0° (Epoch: 12 September)

Event Time Altitude Azimuth Distance (km) Brightness Sun altitude
Rises 12:20:19 0° 337° (NNW) 3,349 5.4 -8.9°
Reaches altitude 10° 12:22:45 10° 338° (NNW) 2,411 4.7 -8.5°
Maximum altitude 12:28:17 89° 251° (WSW) 818 2.2 -7.6°
Drops below altitude 10° 12:33:46 10° 160° (SSE) 2,392 4.5 -6.6°
Sets 12:36:10 0° 160° (SSE) 3,320 5.2 -6.2°
